Location: Albuquerque Trailhead
(34.7934°N, 106.3736°W)
Time: 00:37:15
(UTC+00:00)

ARIANE 5 R/B - Pass Details

Date: 20 June 2021
Orbit: 620 x 656 km, 98.1° (Epoch: 16 July)

Event Time Altitude Azimuth Distance (km) Brightness Sun altitude
Exits shadow 03:45:36 18° 97° (E) 1,573 4.2 -14.7°
Maximum altitude 03:47:11 22° 69° (ENE) 1,420 4.2 -14.9°
Drops below altitude 10° 03:50:34 10° 19° (NNE) 2,053 5.5 -15.4°
Sets 03:53:12 0° 4° (N) 2,974 6.7 -15.8°
